Simultaneous Nadir Overpasses (SNOs) Predictions

Prediction of SNOs near US between AQUA and NPP Satellite Orbit:

Table of predicted SNOs near US for the next 10.0 days since TLE Epoch: 12/22/2017
Index Date (AQUA) Time (AQUA) AQUA Lat,Lon Date (NPP) Time (NPP) NPP Lat,Lon Distance(km) Time Diff (sec)
1 12/23/2017 18:16:58 49.96, -80.19 12/23/2017 18:10:45 49.68, -81.80 119.72 373
2 12/23/2017 19:55:51 49.96,-104.91 12/23/2017 19:52:13 49.57,-107.12 164.98 218
3 12/23/2017 21:31:01 36.66,-124.99 12/23/2017 21:29:52 36.20,-127.63 241.78 69
4 12/26/2017 09:23:54 22.49,-113.65 12/26/2017 09:16:15 22.60,-114.17 55.10 459
5 12/29/2017 06:30:26 46.34, -65.03 12/29/2017 06:30:44 46.74, -67.11 165.36 18
6 12/29/2017 08:08:19 49.90, -88.33 12/29/2017 08:11:10 50.42, -90.91 192.64 171
7 12/29/2017 09:47:12 49.91,-113.05 12/29/2017 09:52:38 50.52,-116.24 237.02 326
8 12/31/2017 19:06:30 50.00, -92.57 12/31/2017 19:01:26 49.65, -94.46 141.35 304
9 12/31/2017 20:45:23 49.99,-117.29 12/31/2017 20:42:54 49.55,-119.79 186.63 149




NCC Satellite Simultaneous Nadir Overpasses (SNOs) Prediction Service
